TimePST,TemperatureF,Dew PointF,Humidity,Sea Level PressureIn,VisibilityMPH,Wind Direction,Wind SpeedMPH,Gust SpeedMPH,PrecipitationIn,Events,Conditions,WindDirDegrees,DateUTC
12:56 AM,42.1,39.0,89,30.20,10.0,Calm,Calm,-,N/A,,Clear,0,2013-03-09 08:56:00
1:56 AM,39.9,37.9,93,30.21,10.0,Calm,Calm,-,N/A,,Clear,0,2013-03-09 09:56:00
2:56 AM,37.9,35.1,89,30.22,10.0,NE,5.8,-,N/A,,Clear,50,2013-03-09 10:56:00
3:36 AM,37.4,35.6,93,30.24,4.0,North,5.8,-,N/A,,Partly Cloudy,350,2013-03-09 11:36:00
3:56 AM,39.0,36.0,89,30.26,10.0,NNW,4.6,-,N/A,,Clear,340,2013-03-09 11:56:00
4:56 AM,39.9,37.0,89,30.26,10.0,East,6.9,-,N/A,,Clear,100,2013-03-09 12:56:00
5:56 AM,43.0,37.0,80,30.28,10.0,NNE,5.8,-,N/A,,Clear,30,2013-03-09 13:56:00
6:56 AM,43.0,35.1,74,30.30,10.0,ENE,6.9,-,N/A,,Clear,70,2013-03-09 14:56:00
7:56 AM,48.0,41.0,77,30.36,10.0,NW,9.2,-,N/A,,Clear,320,2013-03-09 15:56:00
8:56 AM,50.0,44.1,80,30.39,10.0,North,6.9,-,N/A,,Clear,360,2013-03-09 16:56:00
9:56 AM,53.1,42.1,66,30.40,10.0,Calm,Calm,-,N/A,,Clear,0,2013-03-09 17:56:00
10:56 AM,53.1,43.0,69,30.41,10.0,Calm,Calm,-,N/A,,Clear,0,2013-03-09 18:56:00
11:56 AM,54.0,43.0,66,30.42,10.0,West,12.7,-,N/A,,Clear,260,2013-03-09 19:56:00
1:56 PM,53.1,44.1,71,30.40,10.0,WNW,9.2,-,N/A,,Clear,300,2013-03-09 21:56:00
2:56 PM,53.1,46.0,77,30.40,10.0,NNW,10.4,-,N/A,,Clear,340,2013-03-09 22:56:00
3:56 PM,54.0,46.0,75,30.40,10.0,NNW,5.8,-,N/A,,Clear,340,2013-03-09 23:56:00
4:56 PM,51.1,45.0,80,30.40,10.0,NW,10.4,-,N/A,,Clear,320,2013-03-10 00:56:00
5:56 PM,48.0,44.1,86,30.41,10.0,North,9.2,-,N/A,,Clear,350,2013-03-10 01:56:00
6:56 PM,48.0,44.1,86,30.43,9.0,NNW,11.5,-,N/A,,Clear,330,2013-03-10 02:56:00
7:56 PM,48.0,44.1,86,30.43,9.0,NNW,10.4,-,N/A,,Clear,340,2013-03-10 03:56:00
8:56 PM,46.9,44.1,90,30.43,9.0,NNW,8.1,-,N/A,,Clear,340,2013-03-10 04:56:00
9:56 PM,45.0,42.1,90,30.44,7.0,ESE,4.6,-,N/A,,Clear,120,2013-03-10 05:56:00
10:56 PM,45.0,43.0,93,30.44,7.0,East,3.5,-,N/A,,Clear,100,2013-03-10 06:56:00
11:56 PM,43.0,41.0,93,30.44,8.0,SSE,4.6,-,N/A,,Clear,150,2013-03-10 07:56:00